Home > Weather > Rzeszów > Past weeks

Flag for Poland Past Weather in Rzeszów, Poland — Yesterday and Last 2 Weeks

Now
75 °F

Sunny.


Feels Like: 75 °F
Forecast: 67 / 90 °F
Wind: 7 mph from East

Location: Rzeszow-Jasionka

Current Time: Jun 25, 2016 at 9:45:29 PM

Latest Report: Jun 25, 2016 at 9:00 PM


Visibility: 10 mi

Pressure: 29.95 "Hg

Humidity: 83%

Dew Point: 70 °F

Location of RzeszówLocation

Past Weather in Rzeszów — Graph

°F

Rzeszów Temperature Yesterday

Maximum temperature yesterday: 91 °F (at 3:00 PM)
Minimum temperature yesterday: 63 °F (at 4:30 AM)
Average temperature yesterday: 78 °F

High & Low Weather Summary for the Past Weeks

 TemperatureHumidityPressure
High91 °F (Jun 24, 3:00 PM)100% (Jun 10, 11:00 PM)30.27 "Hg (Jun 10, 11:00 PM)
Low45 °F (Jun 12, 2:30 AM)36% (Jun 18, 5:30 PM)29.53 "Hg (Jun 14, 4:00 AM)
Average68 °F73%29.92 "Hg
* Reported Jun 10 8:00 PM — Jun 25 8:30 PM, Rzeszów, Weather by CustomWeather, © 2016

Note: Actual official high and low records may vary slightly from our data, if they occured in-between our weather recording intervals... More about our weather records

Advertising

Rzeszów Weather History for the Previous 24 Hours

Scroll right to see more
 ConditionsComfort  
Time TempWeatherWind HumidityBarometerVisibility
8:30 PM
Sat, Jun 25
77 °FSunny.10 mph79%29.95 "Hg10 mi
8:00 PM79 °FSunny.10 mph74%29.95 "Hg10 mi
7:30 PM81 °FSunny.9 mph66%29.95 "Hg10 mi
7:00 PM82 °FSunny.10 mph62%29.95 "Hg10 mi
6:30 PM82 °FSunny.12 mph66%29.95 "Hg10 mi
6:00 PM82 °FSunny.7 mph70%29.95 "Hg10 mi
5:30 PM84 °FSunny.10 mph62%29.95 "Hg10 mi
5:00 PM86 °FSunny.14 mph59%29.98 "Hg10 mi
4:30 PM88 °FSunny.13 mph55%29.98 "Hg10 mi
4:00 PM88 °FSunny.14 mph59%29.98 "Hg10 mi
3:30 PM86 °FSunny.14 mph59%29.98 "Hg10 mi
3:00 PM86 °FPassing clouds.9 mph70%29.98 "HgN/A
2:30 PM75 °FThunderstorms. Scattered clouds.10 mph78%29.98 "HgN/A
2:00 PM72 °FMild.26 mph61%30.04 "Hg1 mi
1:30 PM79 °FThunderstorms. Partly sunny.16 mph70%30.01 "Hg3 mi
1:00 PM86 °FScattered clouds.10 mph62%30.01 "HgN/A
12:30 PM90 °FPassing clouds.9 mph52%30.01 "HgN/A
12:00 PM88 °FPassing clouds.6 mph55%30.04 "HgN/A
11:30 AM88 °FPassing clouds.5 mph55%30.04 "HgN/A
11:00 AM88 °FPassing clouds.5 mph55%30.04 "HgN/A
10:30 AM86 °FPassing clouds.6 mph59%30.04 "HgN/A
10:00 AM84 °FPassing clouds.6 mph58%30.04 "HgN/A
9:30 AM84 °FPassing clouds.7 mph66%30.04 "HgN/A
9:00 AM79 °FPassing clouds.5 mph79%30.04 "HgN/A
8:30 AM77 °FSunny.8 mph83%30.04 "Hg10 mi
8:00 AM75 °FPassing clouds.8 mph89%30.04 "HgN/A
7:30 AM72 °FScattered clouds.9 mph94%30.04 "HgN/A
7:00 AM72 °FThunderstorms. Scattered clouds.7 mph94%30.04 "HgN/A
6:30 AM72 °FThunderstorms. Scattered clouds.9 mph94%30.04 "HgN/A
6:00 AM72 °FPassing clouds.10 mph94%30.04 "HgN/A
5:30 AM70 °FPassing clouds.10 mph94%30.04 "HgN/A
5:00 AM70 °FSprinkles. Passing clouds.8 mph94%30.04 "HgN/A
4:30 AM70 °FClear.7 mph94%30.04 "Hg10 mi
4:00 AM70 °FClear.9 mph94%30.04 "Hg10 mi
3:30 AM70 °FClear.8 mph94%30.04 "Hg10 mi
3:00 AM70 °FClear.8 mph94%30.04 "Hg10 mi
2:30 AM72 °FClear.7 mph88%30.04 "Hg10 mi
2:00 AM72 °FClear.7 mph88%30.07 "Hg10 mi
1:30 AM72 °FClear.7 mph88%30.07 "Hg10 mi
1:00 AM73 °FClear.5 mph83%30.07 "Hg10 mi
12:30 AM75 °FClear.8 mph78%30.07 "Hg10 mi
12:00 AM75 °FClear.7 mph78%30.07 "Hg10 mi
11:30 PM
Fri, Jun 24
75 °FClear.6 mph78%30.07 "Hg10 mi
11:00 PM75 °FClear.7 mph78%30.07 "Hg10 mi
10:30 PM77 °FClear.8 mph74%30.07 "Hg10 mi
10:00 PM77 °FClear.7 mph74%30.07 "Hg10 mi
9:30 PM77 °FSunny.7 mph74%30.07 "Hg10 mi
9:00 PM77 °FSunny.6 mph74%30.07 "Hg10 mi
Weather by CustomWeather, © 2016

See weather overviewHow to use our weather pages